AEROCUBE 7B (OCSD B) (43042 NORAD) Tracking and Keplerian Element Data

This shows tracking and keplerian element data for the satellite.

Feedback or suggestion? Click here.




ElementValue
Catalog43042
NameAEROCUBE 7B (OCSD B)
Epoch Orbit10354
Epoch Day282.89485495
Epoch Year2019
RAAN219.2528
Inclination51.6374
Eccentricity0.0004221
Argument of Perigee198.249
Mean Anonmoly161.8345
Mean Motion15.41778529
Decay Rate3.843E-05
L11 43042U 17071F 19282.89485495 .00003843 00000-0 98865-4 0 9991
L22 43042 51.6374 219.2528 0004221 198.2490 161.8345 15.41778529103542

Live tracking and technical data element details for AEROCUBE 7B (OCSD B) (NORAD 43042). AEROCUBE 7B (OCSD B) can be tracked NOW for your location showing map with azimuth and elevation plus other details from your city location.

Track the satellite on the map from your city or location and see movement details for azimuth, elevation, latitude, longitude, range, height, and movement on the map or in text.







IsCatalogInMostPopularTable: catalog: 43042, numindb: 327
Update: records affected: 1



GetName: 43042 AEROCUBE 7B (OCSD B)

Hit Count: updated at: Mon, 14 Oct 2019 01:44:56 GMT